N3EG Weather Reports


time (UTC)temp
C
wind
direction
speed
KPH
gust
KPH
rain 1hr
cm
rain 24hr
cm
rain mn
cm
humidity
%
barometer
mb
20260505065502 12 298 4.8 12.9 0.00 0.00 0.00 87 1014.0
20260505065003 12 242 1.6 8.0 0.00 0.00 0.00 87 1014.0
20260505064503 12 287 4.8 9.7 0.00 0.00 0.00 87 1014.0
20260505064002 13 286 3.2 11.3 0.00 0.00 0.00 87 1014.0
20260505063503 13 291 4.8 11.3 0.00 0.00 0.00 87 1014.0
20260505063002 13 259 4.8 11.3 0.00 0.00 0.00 87 1014.0
20260505062502 13 255 3.2 11.3 0.00 0.00 0.00 87 1014.0
20260505062003 13 221 4.8 12.9 0.00 0.00 0.00 88 1014.0
20260505061503 13 220 3.2 16.1 0.00 0.00 0.00 88 1013.9
20260505061002 13 266 6.4 16.1 0.00 0.00 0.00 88 1013.9
20260505060503 13 204 3.2 11.3 0.00 0.00 0.00 88 1013.9
20260505060002 13 291 4.8 16.1 0.00 0.00 0.00 88 1013.7
20260505055502 13 263 4.8 16.1 0.00 0.00 0.00 88 1013.7
20260505055003 13 302 3.2 12.9 0.00 0.00 0.00 88 1013.7
20260505054502 13 250 4.8 12.9 0.00 0.00 0.00 88 1013.7
20260505054002 13 298 3.2 12.9 0.00 0.00 0.00 88 1013.5
20260505053503 13 295 3.2 11.3 0.00 0.00 0.00 88 1013.6
20260505053002 13 324 3.2 11.3 0.00 0.00 0.00 87 1013.5
20260505052502 13 301 1.6 12.9 0.00 0.00 0.00 87 1013.6
20260505052003 13 268 4.8 12.9 0.00 0.00 0.00 87 1013.5
20260505051502 13 331 3.2 11.3 0.00 0.00 0.00 87 1013.5
20260505051002 13 308 3.2 11.3 0.00 0.00 0.00 87 1013.6
20260505050503 13 260 3.2 11.3 0.00 0.00 0.00 87 1013.5
20260505041503 13 252 3.2 6.4 0.00 0.00 0.00 86 1013.2
20260505041003 13 260 0.0 9.7 0.00 0.00 0.00 86 1013.2
20260505040502 13 288 1.6 9.7 0.00 0.00 0.00 86 1013.1
20260505040003 13 215 6.4 9.7 0.00 0.00 0.00 86 1013.0
20260505035502 13 270 3.2 19.3 0.00 0.00 0.00 85 1012.9
20260505035003 13 188 3.2 19.3 0.00 0.00 0.00 85 1012.9
20260505034503 13 239 4.8 16.1 0.00 0.00 0.00 85 1012.8
20260505034002 13 266 4.8 16.1 0.00 0.00 0.00 85 1012.7
20260505033503 13 269 3.2 14.5 0.00 0.00 0.00 85 1012.7
20260505033002 13 290 4.8 14.5 0.00 0.00 0.00 84 1012.6
20260505032502 13 300 6.4 19.3 0.00 0.00 0.00 84 1012.4
20260505032003 13 258 4.8 19.3 0.00 0.00 0.00 84 1012.5
20260505031502 14 275 4.8 16.1 0.00 0.00 0.00 83 1012.3
20260505031002 14 282 4.8 16.1 0.00 0.00 0.00 83 1012.3
20260505030503 14 264 4.8 24.1 0.00 0.00 0.00 82 1012.2
20260505030003 14 289 4.8 24.1 0.00 0.00 0.00 82 1012.2
20260505025502 15 269 6.4 19.3 0.00 0.00 0.00 81 1012.2
20260505025003 15 289 6.4 19.3 0.00 0.00 0.00 81 1012.1
20260505024502 15 290 8.0 22.5 0.00 0.00 0.00 80 1012.1
20260505024002 15 310 6.4 22.5 0.00 0.00 0.00 79 1012.0
20260505023503 15 220 6.4 19.3 0.00 0.00 0.00 79 1012.0
20260505023002 15 323 6.4 24.1 0.00 0.00 0.00 78 1011.9
20260505022502 16 316 8.0 24.1 0.00 0.00 0.00 78 1011.9
20260505022003 16 309 8.0 22.5 0.00 0.00 0.00 77 1011.8
20260505021502 16 294 8.0 22.5 0.00 0.00 0.00 75 1011.8
20260505021002 17 306 8.0 16.1 0.00 0.00 0.00 75 1011.8
20260505020503 17 248 3.2 14.5 0.00 0.00 0.00 75 1011.8
20260505020002 17 314 8.0 19.3 0.00 0.00 0.00 74 1011.7
20260505015502 17 349 8.0 19.3 0.00 0.00 0.00 74 1011.7
20260505015003 17 319 9.7 19.3 0.00 0.00 0.00 73 1011.7
20260505014502 17 285 4.8 22.5 0.00 0.00 0.00 74 1011.5
20260505014002 18 273 4.8 22.5 0.00 0.00 0.00 73 1011.5
20260505013503 18 278 3.2 17.7 0.00 0.00 0.00 72 1011.6
20260505013002 18 313 4.8 17.7 0.00 0.00 0.00 72 1011.5
20260505012502 18 306 6.4 19.3 0.00 0.00 0.00 72 1011.5
20260505012003 18 282 6.4 19.3 0.00 0.00 0.00 71 1011.6
20260505011502 19 292 8.0 19.3 0.00 0.00 0.00 70 1011.4
20260505011002 19 306 4.8 17.7 0.00 0.00 0.00 70 1011.5
20260505010503 20 286 6.4 17.7 0.00 0.00 0.00 68 1011.4
20260505010002 20 308 6.4 19.3 0.00 0.00 0.00 69 1011.5
20260505005502 20 297 6.4 19.3 0.00 0.00 0.00 68 1011.4
20260505005003 20 293 4.8 16.1 0.00 0.00 0.00 68 1011.4
20260505004502 20 310 6.4 16.1 0.00 0.00 0.00 68 1011.4
20260505004002 20 260 4.8 17.7 0.00 0.00 0.00 67 1011.4
20260505003503 20 281 6.4 17.7 0.00 0.00 0.00 67 1011.3
20260505003002 21 264 4.8 14.5 0.00 0.00 0.00 67 1011.4
20260505002502 21 310 4.8 16.1 0.00 0.00 0.00 67 1011.5
20260505002003 21 309 8.0 17.7 0.00 0.00 0.00 66 1011.4
20260505001502 21 312 3.2 17.7 0.00 0.00 0.00 66 1011.4
20260505001002 21 274 3.2 19.3 0.00 0.00 0.00 66 1011.4
20260505000503 21 212 4.8 22.5 0.00 0.00 0.00 65 1011.3
20260505000002 21 287 8.0 22.5 0.00 0.00 0.00 65 1011.3
20260504235502 21 333 8.0 24.1 0.00 0.00 0.00 66 1011.3
20260504235003 21 326 12.9 24.1 0.00 0.00 0.00 65 1011.3
20260504234502 21 289 6.4 24.1 0.00 0.00 0.00 65 1011.3
20260504234003 22 320 11.3 24.1 0.00 0.00 0.00 64 1011.3
20260504233503 22 328 9.7 25.7 0.00 0.00 0.00 66 1011.3
20260504233002 22 305 8.0 25.7 0.00 0.00 0.00 66 1011.2
20260504232503 22 304 4.8 27.4 0.00 0.00 0.00 66 1011.1
20260504232003 22 311 9.7 27.4 0.00 0.00 0.00 66 1011.1
20260504231502 22 306 9.7 20.9 0.00 0.00 0.00 66 1011.0
20260504231003 22 323 9.7 22.5 0.00 0.00 0.00 66 1011.2
20260504230502 22 307 8.0 22.5 0.00 0.00 0.00 64 1011.1
20260504230002 22 322 8.0 22.5 0.00 0.00 0.00 66 1011.1
20260504225503 22 308 8.0 22.5 0.00 0.00 0.00 65 1011.3
20260504225003 22 319 9.7 19.3 0.00 0.00 0.00 66 1011.3
20260504224502 22 318 9.7 19.3 0.00 0.00 0.00 65 1011.3
20260504224003 22 309 8.0 20.9 0.00 0.00 0.00 63 1011.4
20260504223502 22 317 8.0 20.9 0.00 0.00 0.00 65 1011.4
20260504223002 23 311 8.0 17.7 0.00 0.00 0.00 65 1011.4
20260504222503 23 321 9.7 17.7 0.00 0.00 0.00 66 1011.5
20260504222002 23 316 4.8 16.1 0.00 0.00 0.00 65 1011.5
20260504221502 23 288 4.8 16.1 0.00 0.00 0.00 63 1011.6
20260504221003 23 294 4.8 14.5 0.00 0.00 0.00 64 1011.6
20260504220502 23 306 6.4 14.5 0.00 0.00 0.00 64 1011.6
20260504220002 23 311 3.2 16.1 0.00 0.00 0.00 65 1011.8
20260504215503 23 294 8.0 16.1 0.00 0.00 0.00 63 1011.8
20260504215002 22 292 9.7 16.1 0.00 0.00 0.00 62 1011.8
20260504214502 22 353 4.8 12.9 0.00 0.00 0.00 62 1011.8
20260504214003 22 316 4.8 20.9 0.00 0.00 0.00 65 1011.8
20260504213502 22 329 9.7 20.9 0.00 0.00 0.00 66 1011.9
20260504213002 22 330 8.0 17.7 0.00 0.00 0.00 66 1011.9
20260504212503 22 305 6.4 19.3 0.00 0.00 0.00 67 1012.0
20260504212002 22 291 6.4 19.3 0.00 0.00 0.00 66 1011.9
20260504211502 22 323 6.4 16.1 0.00 0.00 0.00 66 1012.0
20260504211003 22 323 8.0 16.1 0.00 0.00 0.00 66 1012.0
20260504210502 22 324 6.4 14.5 0.00 0.00 0.00 68 1012.1
20260504210002 22 310 8.0 16.1 0.00 0.00 0.00 67 1012.1
20260504205503 22 326 8.0 17.7 0.00 0.00 0.00 68 1012.3
20260504205002 22 323 11.3 17.7 0.00 0.00 0.00 67 1012.3
20260504204502 22 312 6.4 16.1 0.00 0.00 0.00 68 1012.2
20260504204003 21 323 8.0 17.7 0.00 0.00 0.00 69 1012.3
20260504203502 21 323 8.0 17.7 0.00 0.00 0.00 69 1012.5
20260504203003 21 314 8.0 17.7 0.00 0.00 0.00 68 1012.5
20260504202503 21 328 4.8 16.1 0.00 0.00 0.00 70 1012.5
20260504202002 21 328 9.7 16.1 0.00 0.00 0.00 69 1012.6
20260504201503 21 327 8.0 16.1 0.00 0.00 0.00 70 1012.6
20260504201003 21 327 8.0 17.7 0.00 0.00 0.00 71 1012.7
20260504200502 21 308 8.0 17.7 0.00 0.00 0.00 71 1012.8
20260504200003 21 323 11.3 16.1 0.00 0.00 0.00 69 1012.9
20260504195503 21 310 8.0 16.1 0.00 0.00 0.00 71 1013.0
20260504195002 21 315 6.4 16.1 0.00 0.00 0.00 73 1012.9
20260504194503 20 296 6.4 16.1 0.00 0.00 0.00 71 1012.9
20260504194003 20 316 4.8 16.1 0.00 0.00 0.00 73 1013.0
20260504193503 20 323 6.4 16.1 0.00 0.00 0.00 72 1013.1
20260504193003 20 315 6.4 12.9 0.00 0.00 0.00 72 1013.1
20260504192502 20 300 4.8 12.9 0.00 0.00 0.00 71 1013.2
20260504192002 20 317 4.8 11.3 0.00 0.00 0.00 73 1013.3
20260504191503 19 300 3.2 11.3 0.00 0.00 0.00 73 1013.3
20260504191002 19 315 4.8 12.9 0.00 0.00 0.00 75 1013.3
20260504190502 19 288 4.8 12.9 0.00 0.00 0.00 75 1013.4
20260504190003 18 318 4.8 14.5 0.00 0.00 0.00 77 1013.4
20260504185502 18 314 8.0 14.5 0.00 0.00 0.00 76 1013.4
20260504185002 18 330 8.0 14.5 0.00 0.00 0.00 77 1013.5
20260504184503 18 334 6.4 14.5 0.00 0.00 0.00 77 1013.6
20260504184002 18 338 6.4 14.5 0.00 0.00 0.00 76 1013.5
20260504183503 18 296 8.0 14.5 0.00 0.00 0.00 76 1013.5
20260504183003 17 349 6.4 14.5 0.00 0.00 0.00 78 1013.6
20260504182502 17 328 6.4 16.1 0.00 0.00 0.00 76 1013.7
20260504182003 17 324 6.4 16.1 0.00 0.00 0.00 78 1013.7
20260504181503 17 315 4.8 16.1 0.00 0.00 0.00 79 1013.7
20260504181002 17 328 8.0 14.5 0.00 0.00 0.00 78 1013.8
20260504180503 17 328 6.4 14.5 0.00 0.00 0.00 78 1013.9
20260504180003 17 316 4.8 14.5 0.00 0.00 0.00 80 1013.7
20260504175502 17 337 8.0 16.1 0.00 0.00 0.00 80 1013.8
20260504175003 16 324 8.0 16.1 0.00 0.00 0.00 79 1013.7
20260504174503 16 333 9.7 14.5 0.00 0.00 0.00 79 1013.7
20260504174002 16 325 8.0 14.5 0.00 0.00 0.00 80 1013.8
20260504173503 16 307 8.0 17.7 0.00 0.00 0.00 81 1013.8
20260504173002 16 321 8.0 17.7 0.00 0.00 0.00 79 1013.7
20260504172502 16 329 9.7 16.1 0.00 0.00 0.00 80 1013.8
20260504172003 16 320 6.4 14.5 0.00 0.00 0.00 81 1013.9
20260504171502 16 288 4.8 16.1 0.00 0.00 0.00 82 1013.9
20260504171003 16 317 8.0 16.1 0.00 0.00 0.00 82 1013.8
20260504170503 16 322 9.7 16.1 0.00 0.00 0.00 82 1013.9
20260504151002 13 281 3.2 16.1 0.00 0.00 0.00 89 1013.2
20260504150503 13 297 4.8 14.5 0.00 0.00 0.00 89 1013.2
20260504141003 12 246 1.6 4.8 0.00 0.00 0.00 91 1012.8
20260504140503 12 179 1.6 4.8 0.00 0.00 0.00 92 1012.7
20260504130502 12 173 1.6 6.4 0.00 0.00 0.00 91 1011.6
20260504110502 12 17 3.2 6.4 0.00 0.00 0.00 87 1010.4
20260504100502 13 293 0.0 4.8 0.00 0.00 0.00 85 1010.2
20260504082003 14 97 0.0 1.6 0.00 0.00 0.00 85 1009.4
20260504081502 14 97 0.0 1.6 0.00 0.00 0.00 85 1009.5
20260504081002 14 99 1.6 1.6 0.00 0.00 0.00 84 1009.4
20260504080503 14 100 0.0 0.0 0.00 0.00 0.00 84 1009.3